Flag for U.S.A. Weather past 2 weeks in Topeka, Kansas, U.S.A.

Now
75 °F

Mostly cloudy.


Feels Like: 77 °F
Forecast: 59 / 76 °F
Wind: 13 mph from South

Location: Philip Billard Municipal Airport

Current Time: May 25, 2015 at 1:46:58 PM

Latest Report: May 25, 2015 at 12:53 PM


Visibility: 10 mi

Pressure: 29.85 "Hg

Humidity: 69%

Dew point: 64 °F

Location of TopekaLocation

Historic Weather in Topeka — Graph

°F

Topeka temperature yesterday

Maximum temperature yesterday: 71 °F (at 1:53 PM)
Minimum temperature yesterday: 62 °F (at 12:04 AM)
Average temperature yesterday: 66 °F

Past Weeks' High & Low Weather Summary

 TemperatureHumidityPressure
High82 °F (May 17, 5:53 PM)100% (May 14, 11:53 PM)30.34 "Hg (May 14, 11:53 PM)
Low43 °F (May 12, 5:53 AM)32% (May 12, 4:53 PM)29.64 "Hg (May 17, 12:53 AM)
Average61 °F75%30.05 "Hg
* Reported May 10 12:53 PM — May 25 12:53 PM, Topeka, Weather by CustomWeather, © 2015

Note: Actual official high and low records may vary slightly from our data, if they occured in-between our weather recording intervals... More about our weather records

Advertising

Topeka weather history for previous 24 hours

 ConditionsComfort  
Time TempWeatherWind HumidityBarometerVisibility
12:53 PM
Mon, May 25
75 °FMostly cloudy.13 mph69%29.85 "Hg10 mi
11:53 AM74 °FBroken clouds.18 mph69%29.85 "Hg10 mi
10:53 AM72 °FPassing clouds.14 mph68%29.83 "Hg10 mi
9:53 AM68 °FSunny.13 mph78%29.85 "Hg10 mi
8:53 AM64 °FSunny.9 mph90%29.85 "Hg10 mi
8:00 AM61 °FLight rain. Fog.21 mph97%29.83 "Hg5 mi
7:03 AM61 °FLight rain. More clouds than sun.3 mph97%29.94 "Hg7 mi
5:53 AM61 °FPassing clouds.3 mph93%29.86 "Hg10 mi
4:53 AM61 °FPassing clouds.No wind97%29.83 "Hg10 mi
3:53 AM60 °FPassing clouds.No wind96%29.83 "Hg10 mi
2:53 AM62 °FClear.6 mph93%29.80 "Hg10 mi
1:53 AM63 °FOvercast.No wind93%29.81 "Hg10 mi
12:53 AM64 °FPassing clouds.No wind90%29.81 "Hg10 mi
11:53 PM
Sun, May 24
64 °FClear.5 mph94%29.80 "Hg10 mi
10:53 PM64 °FPassing clouds.5 mph94%29.80 "Hg10 mi
9:53 PM64 °FPassing clouds.No wind94%29.80 "Hg10 mi
8:53 PM65 °FOvercast.3 mph91%29.79 "Hg10 mi
7:53 PM66 °FScattered clouds.No wind87%29.79 "Hg10 mi
6:53 PM67 °FMore clouds than sun.7 mph85%29.81 "Hg10 mi
5:53 PM68 °FOvercast.10 mph78%29.83 "Hg10 mi
4:53 PM69 °FOvercast.10 mph81%29.84 "Hg10 mi
3:53 PM70 °FOvercast.12 mph76%29.84 "Hg10 mi
2:53 PM70 °FOvercast.8 mph73%29.84 "Hg10 mi
1:53 PM71 °FOvercast.7 mph73%29.85 "Hg10 mi
Weather by CustomWeather, © 2015

See weather overviewHow to use our weather pages